TimeMST,TemperatureF,Dew PointF,Humidity,Sea Level PressureIn,VisibilityMPH,Wind Direction,Wind SpeedMPH,Gust SpeedMPH,PrecipitationIn,Events,Conditions,WindDirDegrees,DateUTC
12:53 AM,24.1,19.9,84,29.95,10.0,NE,4.6,-,N/A,,Mostly Cloudy,50,2013-02-17 07:53:00
1:53 AM,23.0,19.0,85,29.91,10.0,North,4.6,-,N/A,,Partly Cloudy,10,2013-02-17 08:53:00
2:53 AM,23.0,18.0,81,29.88,10.0,Calm,Calm,-,N/A,,Scattered Clouds,0,2013-02-17 09:53:00
3:53 AM,23.0,18.0,81,29.85,10.0,Calm,Calm,-,N/A,,Scattered Clouds,0,2013-02-17 10:53:00
4:53 AM,24.1,19.0,81,29.88,10.0,South,8.1,-,N/A,,Overcast,190,2013-02-17 11:53:00
5:53 AM,27.0,21.0,78,29.89,10.0,SSW,8.1,-,N/A,,Overcast,210,2013-02-17 12:53:00
6:17 AM,26.6,21.2,80,29.84,9.0,West,6.9,-,0.00,Snow,Light Snow,260,2013-02-17 13:17:00
6:27 AM,26.6,21.2,80,29.84,1.5,West,6.9,-,0.00,Snow,Light Snow,280,2013-02-17 13:27:00
6:33 AM,24.8,21.2,86,29.83,0.8,WSW,6.9,-,0.01,Snow,Light Snow,240,2013-02-17 13:33:00
6:46 AM,24.8,23.0,93,29.83,1.8,SW,9.2,-,0.01,Snow,Light Snow,220,2013-02-17 13:46:00
6:50 AM,24.8,24.8,100,29.83,3.0,SSW,6.9,-,0.01,Snow,Light Snow,210,2013-02-17 13:50:00
6:53 AM,25.0,24.1,96,29.91,4.0,SSW,5.8,-,0.01,Snow,Light Snow,200,2013-02-17 13:53:00
7:02 AM,24.8,24.8,100,29.83,7.0,SSW,10.4,-,0.00,Snow,Light Snow,210,2013-02-17 14:02:00
7:53 AM,23.0,19.9,88,29.94,10.0,South,6.9,-,0.00,,Clear,190,2013-02-17 14:53:00
8:53 AM,23.0,21.0,92,29.98,10.0,Calm,Calm,-,N/A,,Overcast,0,2013-02-17 15:53:00
9:13 AM,21.2,19.4,93,29.86,9.0,SW,3.5,-,N/A,,Mostly Cloudy,230,2013-02-17 16:13:00
9:53 AM,26.1,23.0,88,29.97,10.0,SSW,5.8,-,N/A,,Scattered Clouds,210,2013-02-17 16:53:00
10:53 AM,28.0,21.9,78,29.98,10.0,SSW,6.9,-,N/A,,Mostly Cloudy,200,2013-02-17 17:53:00
11:53 AM,30.0,24.1,79,29.98,10.0,SW,9.2,-,N/A,,Overcast,220,2013-02-17 18:53:00
12:53 PM,30.9,15.1,52,29.97,10.0,West,8.1,-,N/A,,Overcast,270,2013-02-17 19:53:00
1:53 PM,30.9,18.0,59,29.97,10.0,SW,6.9,-,N/A,,Overcast,230,2013-02-17 20:53:00
2:53 PM,32.0,18.0,56,29.96,10.0,SSW,9.2,-,N/A,,Mostly Cloudy,210,2013-02-17 21:53:00
3:53 PM,32.0,18.0,56,29.98,10.0,SSW,8.1,-,N/A,,Clear,200,2013-02-17 22:53:00
4:53 PM,32.0,19.0,59,29.99,10.0,South,4.6,-,N/A,,Clear,190,2013-02-17 23:53:00
5:53 PM,30.0,17.1,59,30.00,10.0,South,6.9,-,N/A,,Clear,180,2013-02-18 00:53:00
6:53 PM,25.0,15.1,66,30.05,10.0,SW,3.5,-,N/A,,Clear,220,2013-02-18 01:53:00
8:53 PM,24.1,12.0,60,30.08,10.0,Calm,Calm,-,N/A,,Partly Cloudy,0,2013-02-18 03:53:00
10:53 PM,21.0,12.9,71,30.12,10.0,Calm,Calm,-,N/A,,Overcast,0,2013-02-18 05:53:00
11:53 PM,23.0,15.1,72,30.11,10.0,South,4.6,-,N/A,,Overcast,190,2013-02-18 06:53:00